[Iaude] MPEC N146: 2024 NK3 [a=1.23,e=0.35,i=2.7,H=28.7]
    mpec at cfa.harvard.edu 
    mpec at cfa.harvard.edu
       
    Sun Jul 14 09:46:00 EDT 2024
    
    
  
M.P.E.C. 2024-N146                                Issued 2024 July 14, 13:44 UT
     The Minor Planet Electronic Circulars contain information on unusual
         minor planets, routine data on comets and natural satellites,
         and occasional editorial announcements.  They are published
    on behalf of Division F of the International Astronomical Union by the
          Minor Planet Center, Smithsonian Astrophysical Observatory,
                          Cambridge, MA 02138, U.S.A.
			  
             Prepared using the Tamkin Foundation Computer Network
                              MPC at CFA.HARVARD.EDU
            URL https://www.minorplanetcenter.net/    ISSN 1523-6714
                                    2024 NK3                                    
Observations:
     K24N03K*KB2024 07 12.12998 19 55 59.400-23 28 21.54         18.0 GXEN146L87
     K24N03K KB2024 07 12.13612 19 55 55.490-23 31 44.76         17.5 GXEN146L87
     K24N03K KB2024 07 12.14227 19 55 51.773-23 35 05.71         17.7 GXEN146L87
     K24N03K  C2024 07 12.29329819 56 04.68 -24 52 23.5                WEN146X09
     K24N03K  C2024 07 12.29682319 56 02.14 -24 53 50.3                WEN146X09
     K24N03K KC2024 07 12.40994819 57 11.261-25 31 37.63         18.5 GVEN146474
     K24N03K KC2024 07 12.41106919 57 10.692-25 32 03.59         18.3 GVEN146474
     K24N03K KC2024 07 12.41274919 57 09.845-25 32 42.86         18.4 GVEN146474
     K24N03K KC2024 07 12.41386919 57 09.235-25 33 08.75         18.5 GVEN146474
     K24N03K KC2024 07 12.61330619 55 20.952-26 35 06.97         18.8 GVEN146474
     K24N03K KC2024 07 12.61539619 55 19.961-26 35 37.32         18.8 GVEN146474
     K24N03K KC2024 07 12.61609019 55 19.632-26 35 47.40         18.9 GVEN146474
     K24N03K KC2024 07 12.61818119 55 18.662-26 36 17.42         19.1 GVEN146474
     K24N03K 0B2024 07 12.96019619 55 08.898-27 51 52.50         19.2 VZEN146M49
     K24N03K 0B2024 07 12.96450319 55 06.853-27 52 34.81         19.1 VZEN146M49
     K24N03K 0B2024 07 12.96881319 55 04.828-27 53 16.38         19.0 VZEN146M49
     K24N03K KB2024 07 13.09939 19 54 11.378-28 10 50.45         18.8 GXEN146L87
     K24N03K KB2024 07 13.10454 19 54 09.854-28 11 24.79         19.0 GXEN146L87
     K24N03K KB2024 07 13.10969 19 54 08.290-28 11 58.67         18.4 GXEN146L87
     K24N03K  C2024 07 14.12227719 54 15.09 -29 40 44.2                WEN146X09
     K24N03K  C2024 07 14.13622119 54 11.93 -29 41 41.2                WEN146X09
Observer details:
474 Mount John Observatory, Lake Tekapo.  Observers A. C. Gilmore, P. M.
    Kilmartin.  Measurer P. M. Kilmartin.  0.6-m f/6.3 Reflector + CCD.
L87 Moonbase South Observatory, Hakos.  Observer G. Duszanowicz.  0.28-m f/1.9
    reflector + CMO.
M49 IAS Remote Observatory, Hakos.  Observers D. Husar, M. Junius, L. Demetz,
    P. Ditz, R. Hellot, T. Steinbach.  Measurer D. Husar.  0.25-m f/4.5
    reflector + CMO.
X09 Deep Random Survey, Rio Hurtado.  Observers A. Schnabel, D. Ruhela.
    Measurer S. Deen.  0.43-m reflector + CMOS.
Orbital elements:
2024 NK3                                                 Earth MOID = 0.0008 AU
Epoch 2024 Mar. 31.0 TT = JDT 2460400.5                 Veres                   
M 329.09923              (2000.0)            P               Q                  
n   0.72258787     Peri.   98.35061     -0.87794090     +0.47674382             
a   1.2299164      Node   110.13210     -0.45563747     -0.80377472             
e   0.3547177      Incl.    2.68544     -0.14701796     -0.35589538             
P   1.36           H   28.72          G   0.15           U   6                  
Residuals in seconds of arc
240712 L87  0.1-  0.3-    240712 474  0.2+  0.1-    240712 M49  0.1-  0.1-
240712 L87  0.0   0.2+    240712 474  0.2-  0.0     240712 M49  0.2+  0.1+
240712 L87  0.1+  0.4-    240712 474  0.1+  0.3-    240713 L87  0.5-  0.3-
240712 X09  0.0   1.1+    240712 474  0.0   0.2-    240713 L87  0.2+  0.3-
240712 X09  0.3-  0.9+    240712 474  0.1-  0.2-    240713 L87  0.3-  0.3-
240712 474  0.2-  0.2-    240712 474  0.0   0.0     240714 X09  0.0   0.3+
240712 474  0.1-  0.1+    240712 M49  0.1-  0.1+    240714 X09  0.2-  0.4+
Ephemeris:
2024 NK3                 a,e,i = 1.23, 0.35, 3                   q = 0.7936
Date    TT    R. A. (2000) Decl.     Delta      r    Elong.  Phase     V
2024 06 14    07 44 42.2 +28 43 35   0.1718  0.8722    30.7   143.6    32.0
...
2024 06 29    07 52 46.5 +29 24 59   0.07368 0.9473    19.0   159.5    33.7
...
2024 07 07    07 53 08.5 +30 43 35   0.02539 0.9920    13.4   166.2    34.6
...
2024 07 13    19 54 59.2 -27 56 50   0.01038 1.0268   171.6     8.3    19.4
2024 07 14    19 54 00.7 -29 34 10   0.01632 1.0326   170.9     9.0    20.5
2024 07 15    19 53 33.1 -30 19 13   0.02226 1.0384   170.5     9.3    21.2
...
2024 07 21    19 52 48.9 -31 29 35   0.05827 1.0733   168.8    10.6    23.4
...
2024 07 29    19 52 57.9 -31 33 23   0.1079  1.1196   164.3    14.2    24.9
...
2024 08 13    19 56 43.3 -30 45 41   0.2098  1.2039   153.0    22.4    26.8
M. P. C. Staff               (C) Copyright 2024 MPC           M.P.E.C. 2024-N146
    
    
More information about the Iaude
mailing list